Flight Track Log - Related Links

Times and Time Zones

All times are in EDT time to prevent confusion due to time zone crossing. See the ASQ4283 flight status page for this flight to view local times or setup timezone preferences in your user account.

Time Position Orientation Groundspeed Altitude Reporting Facility
EDT Latitude Longitude Course Direction KTS MPH feet Rate Location/Type
Fri 08:25:08 AM 41.9000 -87.9000 173° South 215 247 3,800  Level Chicago TRACON
Fri 08:26:37 AM 41.8139 -87.8531 158° South 253 291 7,100 2,400 Climbing Chicago Center
Fri 08:27:00 AM 41.6472 -87.6055 156° South  Level Estimated
Fri 08:27:38 AM 41.7442 -87.8158 158° South 266 306 9,800  Level Chicago Center
Fri 08:28:00 AM 41.5469 -87.5942 175° South  Level FlightAware Approximate
Fri 08:28:39 AM 41.6750 -87.7619 150° Southeast 284 327 12,100  Level Chicago Center
Fri 08:29:00 AM 41.4635 -87.5188 159° South  Level Estimated
Fri 08:29:40 AM 41.5986 -87.7042 151° Southeast 313 360 13,000  Level Chicago Center
Fri 08:30:00 AM 41.3791 -87.4429 173° South  Level Estimated
Fri 08:30:42 AM 41.5114 -87.6364 150° Southeast 356 410 14,200  Level Chicago Center
Fri 08:31:43 AM 41.4000 -87.5697 156° South 368 423 16,100 1,672 Climbing Chicago Center
Fri 08:32:44 AM 41.2986 -87.5511 172° South 367 422 17,600 1,475 Climbing Chicago Center
Fri 08:33:45 AM 41.1969 -87.5336 173° South 367 422 19,100 1,475 Climbing Chicago Center
Fri 08:34:46 AM 41.0969 -87.5056 168° South 368 423 20,600 1,525 Climbing Chicago Center
Fri 08:35:47 AM 40.9950 -87.4786 169° South 371 427 22,200 1,525 Climbing Chicago Center
Fri 08:36:48 AM 40.8931 -87.4503 168° South 375 432 23,700 1,525 Climbing Chicago Center
Fri 08:37:49 AM 40.7906 -87.4242 169° South 377 434 25,300 1,525 Climbing Chicago Center
Fri 08:38:50 AM 40.6897 -87.3933 167° South 374 430 26,800 1,475 Climbing Chicago Center
Fri 08:39:51 AM 40.5939 -87.3536 163° South 365 420 28,300 1,475 Climbing Chicago Center
Fri 08:40:52 AM 40.4986 -87.3175 164° South 358 412 29,800 1,672 Climbing Chicago Center
Fri 08:41:53 AM 40.3869 -87.2747 164° South 355 409 31,700 1,659 Climbing Chicago Center
Fri 08:42:55 AM 40.2950 -87.2367 162° South 350 403 33,200 1,415 Climbing Chicago Center
Fri 08:43:56 AM 40.2036 -87.2025 164° South 343 395 34,600 885 Climbing Chicago Center
Fri 08:44:57 AM 40.1131 -87.1650 162° South 345 397 35,000 212 Climbing Chicago Center
Fri 08:45:49 AM 40.0336 -87.1353 164° South 360 414 35,000  Level Indianapolis Center
Fri 08:46:50 AM 39.9436 -87.0803 155° Southeast 364 419 35,000  Level Indianapolis Center
Fri 08:47:51 AM 39.8592 -87.0097 147° Southeast 364 419 35,000  Level Indianapolis Center
Fri 08:48:52 AM 39.7592 -86.9267 147° Southeast 359 413 35,000  Level Indianapolis Center
Fri 08:49:53 AM 39.6767 -86.8569 147° Southeast 357 411 35,000  Level Indianapolis Center
Fri 08:50:54 AM 39.5944 -86.7886 147° Southeast 354 407 35,000  Level Indianapolis Center
Fri 08:51:56 AM 39.5128 -86.7217 148° Southeast 352 405 35,000 195 Level Indianapolis Center
Fri 08:52:57 AM 39.4322 -86.6533 147° Southeast 350 403 35,400 689 Climbing Indianapolis Center
Fri 08:53:58 AM 39.3492 -86.5853 148° Southeast 355 409 36,400 787 Climbing Indianapolis Center
Fri 08:54:59 AM 39.2661 -86.5167 147° Southeast 357 411 37,000 295 Climbing Indianapolis Center
Fri 08:56:00 AM 39.1619 -86.4308 147° Southeast 369 425 37,000  Level Indianapolis Center
Fri 08:57:01 AM 39.0758 -86.3606 148° Southeast 369 425 37,000  Level Indianapolis Center
Fri 08:58:02 AM 38.9869 -86.2872 147° Southeast 379 436 37,000  Level Indianapolis Center
Fri 08:59:04 AM 38.9008 -86.2050 143° Southeast 388 447 37,000  Level Indianapolis Center
Fri 09:00:05 AM 38.8283 -86.1203 138° Southeast 390 449 37,000  Level Indianapolis Center
Fri 09:01:06 AM 38.7297 -86.0067 138° Southeast 394 453 37,000  Level Indianapolis Center
Fri 09:02:07 AM 38.6483 -85.9128 138° Southeast 392 451 37,000  Level Indianapolis Center
Fri 09:03:08 AM 38.5689 -85.8208 138° Southeast 385 443 37,000  Level Indianapolis Center
Fri 09:04:10 AM 38.4889 -85.7292 138° Southeast 384 442 37,000  Level Indianapolis Center
Fri 09:05:11 AM 38.4086 -85.6378 138° Southeast 383 441 37,000  Level Indianapolis Center
Fri 09:06:12 AM 38.3292 -85.5461 138° Southeast 383 441 37,000  Level Indianapolis Center
Fri 09:07:13 AM 38.2492 -85.4558 138° Southeast 381 438 37,000  Level Indianapolis Center
Fri 09:08:15 AM 38.1694 -85.3647 138° Southeast 382 440 37,000  Level Indianapolis Center
Fri 09:09:16 AM 38.0886 -85.2742 139° Southeast 385 443 37,000  Level Indianapolis Center
Fri 09:10:17 AM 38.0003 -85.1764 139° Southeast 386 444 37,000  Level Indianapolis Center
Fri 09:11:19 AM 37.9200 -85.0861 138° Southeast 386 444 37,000  Level Indianapolis Center
Fri 09:12:20 AM 37.8389 -84.9975 139° Southeast 385 443 37,000  Level Indianapolis Center
Fri 09:13:21 AM 37.7597 -84.9050 137° Southeast 387 445 37,000  Level Indianapolis Center
Fri 09:14:23 AM 37.6781 -84.8158 139° Southeast 387 445 37,000  Level Indianapolis Center
Fri 09:15:24 AM 37.5969 -84.7264 139° Southeast 388 447 37,000  Level Indianapolis Center
Fri 09:16:25 AM 37.5014 -84.6231 139° Southeast 388 447 37,000  Level Indianapolis Center
Fri 09:17:27 AM 37.4206 -84.5328 138° Southeast 388 447 37,000 -49 Level Indianapolis Center
Fri 09:18:28 AM 37.3386 -84.4419 139° Southeast 392 451 36,900 -738 Descending Indianapolis Center
Fri 09:19:29 AM 37.2567 -84.3531 139° Southeast 390 449 35,500 -1,171 Descending Indianapolis Center
Fri 09:20:31 AM 37.1761 -84.2658 139° Southeast 384 442 34,500 -927 Descending Indianapolis Center
Fri 09:21:32 AM 37.0947 -84.1775 139° Southeast 384 442 33,600 -1,426 Descending Indianapolis Center
Fri 09:22:33 AM 37.0156 -84.0864 137° Southeast 386 444 31,600 -1,951 Descending Indianapolis Center
Fri 09:23:35 AM 36.9444 -83.9869 132° Southeast 385 443 29,600 -2,098 Descending Indianapolis Center
Fri 09:24:36 AM 36.8617 -83.8717 132° Southeast 381 438 27,300 -2,244 Descending Indianapolis Center
Fri 09:25:38 AM 36.7892 -83.7708 132° Southeast 389 448 25,000 -1,610 Descending Indianapolis Center
Fri 09:26:39 AM 36.7192 -83.6744 132° Southeast 380 437 24,000 -488 Descending Indianapolis Center
Fri 09:27:41 AM 36.6472 -83.5747 132° Southeast 384 442 24,000  Level Indianapolis Center
Fri 09:28:42 AM 36.5753 -83.4753 132° Southeast 387 445 24,000  Level Indianapolis Center
Fri 09:29:43 AM 36.5028 -83.3783 133° Southeast 385 443 24,000  Level Indianapolis Center
Fri 09:30:45 AM 36.4308 -83.2786 132° Southeast 388 447 24,000 -780 Level Indianapolis Center
Fri 09:31:46 AM 36.3467 -83.1644 132° Southeast 384 442 22,400 -1,756 Descending Indianapolis Center
Fri 09:32:48 AM 36.2750 -83.0672 132° Southeast 383 441 20,400 -1,610 Descending Indianapolis Center
Fri 09:33:49 AM 36.2061 -82.9744 133° Southeast 370 426 19,100 -683 Descending Indianapolis Center
Fri 09:34:51 AM 36.1383 -82.8825 132° Southeast 362 417 19,000 -780 Descending Indianapolis Center
Fri 09:35:52 AM 36.0739 -82.7942 132° Southeast 349 402 17,500 -1,672 Descending Indianapolis Center
Fri 09:36:53 AM 36.0128 -82.7175 135° Southeast 318 366 15,600 -1,220 Descending Indianapolis Center
Fri 09:37:55 AM 35.9431 -82.6672 150° Southeast 293 337 15,000 -455 Descending Indianapolis Center
Fri 09:39:05 AM 35.8539 -82.6014 149° Southeast 299 344 14,600 -646 Descending Atlanta Center
Fri 09:40:05 AM 35.7844 -82.5514 150° Southeast 299 344 13,600 -1,000 Descending Atlanta Center
Fri 09:41:05 AM 35.7086 -82.4914 147° Southeast 299 344 12,600 -1,000 Descending Atlanta Center
Fri 09:42:05 AM 35.6347 -82.4392 150° Southeast 299 344 11,600 -950 Descending Atlanta Center
Fri 09:43:05 AM 35.5611 -82.3844 149° Southeast 306 352 10,700 -800 Descending Atlanta Center
Fri 09:44:05 AM 35.4833 -82.3428 156° South 306 352 10,000 -300 Descending Atlanta Center
Fri 09:45:05 AM 35.4058 -82.3289 172° South 294 338 10,100 -350 Climbing Atlanta Center
Fri 09:46:05 AM 35.3286 -82.3128 170° South 289 333 9,300 -1,100 Descending Atlanta Center
Fri 09:47:05 AM 35.2694 -82.2758 153° Southeast 254 292 7,900 -1,450 Descending Atlanta Center
Fri 09:48:05 AM 35.2189 -82.2311 144° Southeast 231 266 6,400 -1,500 Descending Atlanta Center
Fri 09:50:00 AM 35.0337 -82.2252 158° South  Level FlightAware Approximate
Fri 09:57:00 AM 34.8957 -82.2189 180° South  Level Estimated

Login

Don't have an account? Register now (free) for customized features, flight alerts, and more!